FW9006 Weather Reports


time (UTC)temp
C
wind
direction
speed
KPH
gust
KPH
rain 1hr
cm
rain 24hr
cm
rain mn
cm
humidity
%
barometer
mb
20260509091523 11 193 1.6 8.0 0.00 0.00 0.00 78 1002.6
20260509090524 11 185 3.2 11.3 0.00 0.00 0.00 77 1002.8
20260509085522 11 152 1.6 11.3 0.00 0.00 0.00 76 1003.0
20260509084523 11 199 1.6 8.0 0.00 0.00 0.00 75 1002.9
20260509083523 11 213 1.6 8.0 0.00 0.00 0.00 75 1003.1
20260509082523 11 207 3.2 8.0 0.00 0.00 0.00 74 1003.5
20260509081543 11 220 3.2 8.0 0.00 0.00 0.00 74 1003.5
20260509080543 11 210 1.6 6.4 0.00 0.00 0.00 72 1003.6
20260509075523 11 180 1.6 6.4 0.00 0.00 0.00 71 1003.7
20260509074524 11 186 3.2 9.7 0.00 0.00 0.00 69 1003.8
20260509073522 11 189 1.6 8.0 0.00 0.00 0.00 66 1003.9
20260509072524 11 223 3.2 12.9 0.00 0.00 0.00 64 1004.0
20260509071545 11 215 3.2 11.3 0.00 0.00 0.00 62 1004.1
20260509070523 11 222 4.8 14.5 0.00 0.00 0.00 61 1004.2
20260509065525 12 218 3.2 12.9 0.00 0.00 0.00 58 1004.1
20260509064524 11 205 6.4 12.9 0.00 0.00 0.00 54 1004.3
20260509063524 11 198 4.8 12.9 0.00 0.00 0.00 49 1004.5
20260509062523 11 203 3.2 11.3 0.00 0.00 0.00 43 1004.6
20260509061522 11 221 1.6 4.8 0.00 0.00 0.00 38 1004.6
20260509060523 11 195 1.6 8.0 0.00 0.00 0.00 37 1004.7
20260509055543 11 177 1.6 6.4 0.00 0.00 0.00 36 1004.9
20260509054542 11 217 1.6 6.4 0.00 0.00 0.00 35 1005.0
20260509053543 11 209 1.6 6.4 0.00 0.00 0.00 35 1005.0
20260509052523 11 227 3.2 9.7 0.00 0.00 0.00 34 1004.9
20260509051523 11 195 3.2 11.3 0.00 0.00 0.00 34 1004.9
20260509050523 11 196 1.6 6.4 0.00 0.00 0.00 35 1005.0
20260509045522 10 205 1.6 4.8 0.00 0.00 0.00 36 1005.1
20260509044523 10 219 1.6 4.8 0.00 0.00 0.00 37 1005.1
20260509043523 10 118 0.0 1.6 0.00 0.00 0.00 36 1005.2
20260509042522 10 118 0.0 1.6 0.00 0.00 0.00 36 1005.3
20260509041523 10 118 0.0 1.6 0.00 0.00 0.00 37 1005.4
20260509040524 10 118 0.0 1.6 0.00 0.00 0.00 36 1005.5
20260509035523 10 0.0 0.0 0.00 0.00 0.00 37 1005.7
20260509034523 10 0.0 0.0 0.00 0.00 0.00 37 1005.7
20260509033543 10 0.0 0.0 0.00 0.00 0.00 37 1005.8
20260509032523 10 117 0.0 1.6 0.00 0.00 0.00 37 1005.9
20260509031523 10 117 0.0 1.6 0.00 0.00 0.00 39 1006.0
20260509030522 10 0.0 0.0 0.00 0.00 0.00 38 1006.1
20260509025523 11 0.0 1.6 0.00 0.00 0.00 38 1006.3
20260509024523 11 0.0 1.6 0.00 0.00 0.00 38 1006.4
20260509023523 11 0.0 0.0 0.00 0.00 0.00 37 1006.5
20260509022543 11 117 0.0 1.6 0.00 0.00 0.00 37 1006.5
20260509021543 11 0.0 0.0 0.00 0.00 0.00 37 1006.4
20260509020523 11 0.0 0.0 0.00 0.00 0.00 39 1006.3
20260509015522 12 117 0.0 1.6 0.00 0.00 0.00 37 1006.2
20260509014523 12 117 0.0 1.6 0.00 0.00 0.00 36 1006.2
20260509013522 12 0.0 0.0 0.00 0.00 0.00 34 1006.2
20260509012523 13 0.0 1.6 0.00 0.00 0.00 33 1006.2
20260509011523 13 0.0 1.6 0.00 0.00 0.00 32 1006.2
20260509010522 14 0.0 1.6 0.00 0.00 0.00 31 1006.2
20260509005523 15 200 0.0 3.2 0.00 0.00 0.00 29 1006.2
20260509004523 15 224 1.6 6.4 0.00 0.00 0.00 28 1006.3
20260509003522 15 223 1.6 6.4 0.00 0.00 0.00 27 1006.3
20260509002523 15 253 1.6 6.4 0.00 0.00 0.00 27 1006.4
20260509001523 16 237 1.6 9.7 0.00 0.00 0.00 27 1006.5
20260509000603 16 234 4.8 11.3 0.00 0.00 0.00 26 1006.6
20260508235544 16 239 1.6 11.3 0.00 0.00 0.00 25 1006.6
20260508234523 16 239 1.6 9.7 0.00 0.00 0.00 27 1006.8
20260508233523 17 249 4.8 14.5 0.00 0.00 0.00 27 1006.9
20260508232523 17 309 3.2 9.7 0.00 0.00 0.00 27 1006.9
20260508231522 16 288 3.2 9.7 0.00 0.00 0.00 26 1006.9
20260508230543 17 234 4.8 14.5 0.00 0.00 0.00 26 1006.9
20260508225543 17 285 1.6 8.0 0.00 0.00 0.00 27 1006.8
20260508224524 17 319 1.6 4.8 0.00 0.00 0.00 27 1006.9
20260508223522 17 286 4.8 9.7 0.00 0.00 0.00 27 1006.9
20260508222523 17 244 4.8 12.9 0.00 0.00 0.00 26 1006.9
20260508221523 17 283 3.2 9.7 0.00 0.00 0.00 27 1007.0
20260508220524 17 292 4.8 11.3 0.00 0.00 0.00 26 1007.0
20260508215523 17 268 3.2 8.0 0.00 0.00 0.00 26 1007.0
20260508214524 17 327 6.4 12.9 0.00 0.00 0.00 26 1007.0
20260508213522 18 290 3.2 11.3 0.00 0.00 0.00 26 1007.0
20260508212523 18 254 4.8 11.3 0.00 0.00 0.00 26 1007.1
20260508211523 17 297 3.2 12.9 0.00 0.00 0.00 25 1007.1
20260508210523 17 243 1.6 11.3 0.00 0.00 0.00 26 1007.2
20260508205522 17 317 6.4 19.3 0.00 0.00 0.00 26 1007.3
20260508204523 17 300 6.4 12.9 0.00 0.00 0.00 25 1007.4
20260508203523 17 347 1.6 17.7 0.00 0.00 0.00 26 1007.5
20260508202543 18 233 4.8 16.1 0.00 0.00 0.00 25 1007.6
20260508201522 17 282 4.8 12.9 0.00 0.00 0.00 26 1007.7
20260508200542 17 324 4.8 14.5 0.00 0.00 0.00 25 1007.8
20260508195523 17 274 3.2 12.9 0.00 0.00 0.00 25 1008.0
20260508194524 17 319 6.4 11.3 0.00 0.00 0.00 26 1008.0
20260508193523 17 306 4.8 14.5 0.00 0.00 0.00 26 1008.2
20260508192523 17 291 3.2 11.3 0.00 0.00 0.00 25 1008.2
20260508191524 16 318 6.4 12.9 0.00 0.00 0.00 27 1008.2
20260508190523 17 293 4.8 14.5 0.00 0.00 0.00 27 1008.3
20260508185542 16 314 4.8 11.3 0.00 0.00 0.00 26 1008.3
20260508184523 16 284 3.2 14.5 0.00 0.00 0.00 28 1008.4
20260508183523 17 326 6.4 14.5 0.00 0.00 0.00 26 1008.5
20260508182523 17 261 3.2 11.3 0.00 0.00 0.00 28 1008.6
20260508181523 17 282 3.2 14.5 0.00 0.00 0.00 29 1008.7
20260508180543 17 219 6.4 12.9 0.00 0.00 0.00 28 1008.8
20260508175544 16 268 4.8 9.7 0.00 0.00 0.00 30 1008.9
20260508174522 16 329 4.8 14.5 0.00 0.00 0.00 30 1009.1
20260508173523 16 304 3.2 14.5 0.00 0.00 0.00 30 1009.2
20260508172523 16 241 3.2 11.3 0.00 0.00 0.00 31 1009.3
20260508171523 16 324 4.8 11.3 0.00 0.00 0.00 31 1009.5
20260508170543 16 296 3.2 16.1 0.00 0.00 0.00 31 1009.8
20260508165522 16 228 4.8 12.9 0.00 0.00 0.00 32 1010.0
20260508164523 16 286 3.2 8.0 0.00 0.00 0.00 31 1010.2
20260508163523 16 287 3.2 9.7 0.00 0.00 0.00 32 1010.3
20260508162523 15 223 6.4 12.9 0.00 0.00 0.00 32 1010.3
20260508161522 15 255 4.8 14.5 0.00 0.00 0.00 34 1010.4
20260508160523 16 222 4.8 11.3 0.00 0.00 0.00 32 1010.4
20260508155523 15 284 1.6 11.3 0.00 0.00 0.00 33 1010.4
20260508154522 15 308 4.8 9.7 0.00 0.00 0.00 34 1010.5
20260508153523 14 318 4.8 11.3 0.00 0.00 0.00 34 1010.5
20260508152522 15 221 3.2 12.9 0.00 0.00 0.00 37 1010.5
20260508151523 15 219 4.8 14.5 0.00 0.00 0.00 40 1010.6
20260508150522 15 227 8.0 17.7 0.00 0.00 0.00 39 1010.7
20260508145523 14 317 3.2 9.7 0.00 0.00 0.00 36 1010.7
20260508144523 14 240 3.2 6.4 0.00 0.00 0.00 39 1010.7
20260508143522 13 258 3.2 14.5 0.00 0.00 0.00 39 1010.8
20260508142521 13 243 3.2 14.5 0.00 0.00 0.00 41 1010.9
20260508141522 13 222 3.2 11.3 0.00 0.00 0.00 47 1010.9
20260508140523 12 218 3.2 11.3 0.00 0.00 0.00 47 1010.9
20260508135543 12 208 3.2 9.7 0.00 0.00 0.00 51 1010.9
20260508134522 11 216 1.6 8.0 0.00 0.00 0.00 56 1010.9
20260508133522 11 228 3.2 8.0 0.00 0.00 0.00 59 1010.9
20260508132521 10 209 1.6 8.0 0.00 0.00 0.00 61 1011.0
20260508131523 10 237 3.2 9.7 0.00 0.00 0.00 62 1011.1
20260508130523 9 217 1.6 9.7 0.00 0.00 0.00 64 1011.2
20260508125523 9 211 3.2 6.4 0.00 0.00 0.00 65 1011.3
20260508124543 8 225 1.6 6.4 0.00 0.00 0.00 69 1011.2
20260508123522 7 224 0.0 4.8 0.00 0.00 0.00 73 1011.2
20260508122522 6 0.0 0.0 0.00 0.00 0.00 78 1011.2
20260508121522 5 0.0 0.0 0.00 0.00 0.00 81 1011.2
20260508120522 4 0.0 0.0 0.00 0.00 0.00 84 1011.0
20260508115523 3 0.0 0.0 0.00 0.00 0.00 86 1010.9
20260508114522 2 0.0 0.0 0.00 0.00 0.00 88 1010.9
20260508113522 1 0.0 0.0 0.00 0.00 0.00 89 1010.8
20260508112522 1 0.0 0.0 0.00 0.00 0.00 89 1010.8
20260508111522 0 0.0 0.0 0.00 0.00 0.00 88 1010.7
20260508110525 0 0.0 0.0 0.00 0.00 0.00 88 1010.7
20260508105603 0 0.0 0.0 0.00 0.00 0.00 88 1010.6
20260508104523 0 0.0 0.0 0.00 0.00 0.00 88 1010.6
20260508103522 0 0.0 0.0 0.00 0.00 0.00 87 1010.6
20260508102522 0 0.0 0.0 0.00 0.00 0.00 87 1010.7
20260508101523 1 0.0 0.0 0.00 0.00 0.00 87 1010.8
20260508100522 1 0.0 0.0 0.00 0.00 0.00 87 1010.9
20260508095541 1 0.0 0.0 0.00 0.00 0.00 86 1010.9
20260508094522 1 0.0 0.0 0.00 0.00 0.00 86 1010.9
20260508093521 1 0.0 0.0 0.00 0.00 0.00 85 1010.9
20260508092521 1 0.0 0.0 0.00 0.00 0.00 85 1011.1